This demonstration page uses our WeatherBlox Daily Observations layout. Learn more.

Left ArrowRight Arrow

36.19886, -115.1175

Hourly Observations for May 31, 2021

Temp ( °F °C ) Dew Point ( °F °C ) Humidity (%) Winds ( mph kmh ) Pressure ( in mb ) Visibility ( mi km ) Precip ( " mm )
12:53 am 00:53 Clear 84 28.9 28 -2.2 13 13 WNW 5 7 29.75 1007 10 16 N/A
1:53 am 01:53 Clear 84 28.9 29 -1.7 13 13 N 5 7 29.76 1008 10 16 N/A
2:53 am 02:53 Clear 81 27.2 31 -0.6 16 16 WNW 6 9 29.78 1009 10 16 N/A
3:53 am 03:53 Clear 81 27.2 27 -2.8 14 14 NW 7 11 29.80 1009 10 16 N/A
4:53 am 04:53 Clear 78 25.6 30 -1.1 17 17 SSW 6 9 29.82 1010 10 16 N/A
5:53 am 05:53 Sunny 73 22.8 30 -1.1 20 20 S 3 6 29.85 1011 10 16 N/A
6:53 am 06:53 Sunny 79 26.1 31 -0.6 17 17 N N/A 29.87 1012 10 16 N/A
7:53 am 07:53 Sunny 83 28.3 30 -1.1 15 15 N N/A 29.87 1012 10 16 N/A
8:53 am 08:53 Sunny 89 31.7 22 -5.6 8 8 NNW 6 9 29.87 1012 10 16 N/A
9:53 am 09:53 Sunny 91 32.8 19 -7.2 7 7 N N/A 29.87 1012 10 16 N/A
10:53 am 10:53 Sunny 95 35 14 -10 5 5 VRB 3 6 29.86 1011 10 16 N/A
11:53 am 11:53 Sunny 95 35 12 -11.1 5 5 N N/A 29.85 1011 10 16 N/A
12:53 pm 12:53 Sunny 97 36.1 12 -11.1 4 4 SW 6 9 29.84 1010 10 16 N/A
1:53 pm 13:53 Sunny 98 36.7 15 -9.4 5 5 WSW 5 7 29.82 1010 10 16 N/A
2:53 pm 14:53 Sunny 99 37.2 18 -7.8 5 5 N N/A 29.80 1009 10 16 N/A
3:53 pm 15:53 Sunny 100 37.8 19 -7.2 5 5 SW 10 17 29.79 1009 10 16 N/A
4:53 pm 16:53 Sunny 100 37.8 19 -7.2 5 5 undefined N/A 29.78 1008 10 16 N/A
5:53 pm 17:53 Sunny 99 37.2 18 -7.8 5 5 SW 6 9 29.78 1009 10 16 N/A
6:53 pm 18:53 Sunny 99 37.2 20 -6.7 6 6 VRB 3 6 29.78 1008 10 16 N/A
7:53 pm 19:53 Clear 97 36.1 20 -6.7 6 6 NNW 5 7 29.79 1009 10 16 N/A
8:53 pm 20:53 Clear 95 35 20 -6.7 6 6 W 6 9 29.80 1009 10 16 N/A
9:53 pm 21:53 Clear 91 32.8 26 -3.3 9 9 W 8 13 29.82 1010 10 16 N/A
10:53 pm 22:53 Clear 87 30.6 26 -3.3 11 11 W 7 11 29.82 1010 10 16 N/A
11:53 pm 23:53 Clear 84 28.9 24 -4.4 11 11 E 3 6 29.84 1010 10 16 N/A

Powered by AerisWeather